Regional Weather Roundup
Issued by NWS

Home | Current Version | Previous Version | Text Only | Print | Product List | Glossary Off
Versions: 1 2 3 4 5 6 7 8 9 10 11 12 13 14 15 16 17 18 19 20 21 22 23 24 25 26 27 28 29 30 31 32 33 34 35 36 37 38 39 40 41 42 43 44 45 46 47 48 49 50

000
ASUS43 KFSD 160410
RWRSD

WEATHER ROUNDUP FOR SOUTH DAKOTA
NATIONAL WEATHER SERVICE SIOUX FALLS SD
1000 PM CST FRI DEC 15 2017

NOTE: "FAIR" INDICATES FEW OR NO CLOUDS BELOW 12,000 FEET WITH NO
SIGNIFICANT WEATHER AND/OR OBSTRUCTIONS TO VISIBILITY.


SDZ001>005-009-010-012>017-160500-
NORTHWEST AND NORTH CENTRAL SOUTH DAKOTA

CITY           SKY/WX    TMP DP  RH WIND       PRES   REMARKS
BUFFALO          N/A     38  21  50 NW9       29.58R
FAITH            N/A     41  21  44 W14       29.63S
MOBRIDGE       CLOUDY    39  24  55 NW10      29.55F
$$

SDZ012>016-024>037-041>051-057-063-072>074-160500-
SOUTHWEST AND SOUTH CENTRAL SOUTH DAKOTA

CITY           SKY/WX    TMP DP  RH WIND       PRES   REMARKS
RAPID CTY ARPT CLOUDY    38  15  39 SW5       29.67S
PIERRE         CLOUDY    42  23  46 W12       29.60F
CUSTER         CLOUDY    37  13  37 W6        29.71S
ELLSWORTH AFB  CLOUDY    37  16  42 W3        29.66S
PHILIP         CLOUDY    38  24  57 W10       29.66R
PINE RIDGE     CLOUDY    43  21  41 SW9       29.71F
SPEARFISH      FAIR      46  16  29 W9        29.68S
WINNER         FAIR      44  24  45 SW8       29.65S
$$

SDZ004>011-016>023-039-040-160500-
NORTHEAST SOUTH DAKOTA

CITY           SKY/WX    TMP DP  RH WIND       PRES   REMARKS
ABERDEEN       CLOUDY    30  25  81 S8        29.56S WCI  22
WATERTOWN      CLOUDY    32  29  88 S8        29.56F WCI  25
BROOKINGS      CLOUDY    34  26  72 S7        29.59F WCI  28
SISSETON         N/A     33  30  88 SE6       29.55F WCI  28
$$

SDZ017-020-022-023-036>040-048>070-160500-
SOUTHEAST SOUTH DAKOTA

CITY           SKY/WX    TMP DP  RH WIND       PRES   REMARKS
SIOUX FALLS    CLOUDY    39  28  64 SW7       29.62F
HURON          PTCLDY    38  29  70 SW8       29.60R
CHAMBERLAIN    PTCLDY    43  29  58 W9        29.63S
MITCHELL       CLOUDY    41  29  62 SW9       29.62F
YANKTON        CLOUDY    42  27  55 SW9       29.64F
$$

ABBREVIATIONS USED IN REMARKS
   TC - TEMPERATURE IN CELSIUS
  WCI - WIND CHILL INDEX
   HX - HEAT INDEX
  VSB - VISIBILITY





USA.gov is the U.S. government's official web portal to all federal, state and local government web resources and services.